When you browse on this site, cookies collect data to enhance your experience and personalize the content and advertising you see.
Visit our Privacy Policy to learn more. By continuing to use the site, you agree to this use of cookies and data.
  • In Hungary
  • List of Countries
  • For 7 days
  • Water Temperature
  • Satellite Maps
  • Weather Map
  • News
  • Weather Widgets
  • user-avatar
    Login

    Hourly Weather Castelfiorentino

    Today, 16 January, Wednesday

    Time Temperature Precipitation Wind Pressure Humidity
    00:00 +7°C° 0 mm 1 mps 759 mmHg 63%
    01:00 +7°C° 0 mm 1 mps 759 mmHg 65%
    02:00 +7°C° 0 mm 1 mps 759 mmHg 65%
    03:00 +7°C° 0 mm 1 mps 758 mmHg 64%
    04:00 +7°C° 0 mm 1 mps 758 mmHg 64%
    05:00 +6°C° 0 mm 1 mps 758 mmHg 64%
    06:00 +4°C° 0 mm 2 mps 758 mmHg 64%
    07:00 +3°C° 0 mm 2 mps 758 mmHg 60%
    08:00 +4°C° 0 mm 2 mps 759 mmHg 56%
    09:00 +5°C° 0 mm 2 mps 759 mmHg 53%
    10:00 +7°C° 0 mm 1 mps 759 mmHg 49%
    11:00 +9°C° 0 mm 1 mps 759 mmHg 50%
    12:00 +10°C° 0 mm 1 mps 759 mmHg 51%
    13:00 +12°C° 0 mm 1 mps 759 mmHg 52%
    14:00 +12°C° 0 mm 1 mps 758 mmHg 58%
    15:00 +12°C° 0 mm 1 mps 758 mmHg 64%
    16:00 +12°C° 0 mm 1 mps 757 mmHg 71%
    17:00 +11°C° 0 mm 1 mps 757 mmHg 76%
    18:00 +9°C° 0 mm 1 mps 757 mmHg 81%
    19:00 +8°C° 0 mm 1 mps 757 mmHg 86%
    20:00 +8°C° 0 mm 1 mps 757 mmHg 88%
    21:00 +8°C° 0 mm 1 mps 757 mmHg 90%
    22:00 +7°C° 0 mm 1 mps 757 mmHg 92%
    23:00 +8°C° 0.1 mm 1 mps 757 mmHg 92%

    Tomorrow, 17 January, Thursday

    Time Temperature Precipitation Wind Pressure Humidity
    00:00 +8°C° 0.1 mm 1 mps 757 mmHg 92%
    01:00 +8°C° 0.1 mm 1 mps 757 mmHg 92%
    02:00 +8°C° 0.2 mm 1 mps 756 mmHg 92%
    03:00 +8°C° 0.2 mm 1 mps 756 mmHg 92%
    04:00 +8°C° 0.2 mm 1 mps 756 mmHg 93%
    05:00 +8°C° 0 mm 1 mps 755 mmHg 93%
    06:00 +6°C° 0 mm 2 mps 755 mmHg 94%
    07:00 +6°C° 0 mm 2 mps 755 mmHg 94%
    08:00 +7°C° 0 mm 2 mps 755 mmHg 93%
    09:00 +8°C° 0 mm 2 mps 755 mmHg 91%
    10:00 +9°C° 0 mm 1 mps 755 mmHg 89%
    11:00 +11°C° 0 mm 1 mps 754 mmHg 83%
    12:00 +12°C° 0 mm 1 mps 754 mmHg 78%
    13:00 +13°C° 0 mm 1 mps 754 mmHg 73%
    14:00 +13°C° 0.1 mm 1 mps 753 mmHg 74%
    15:00 +13°C° 0.1 mm 1 mps 753 mmHg 75%
    16:00 +11°C° 0.1 mm 0 mps 753 mmHg 77%
    17:00 +11°C° 0 mm 1 mps 753 mmHg 80%
    18:00 +10°C° 0 mm 1 mps 753 mmHg 84%
    19:00 +9°C° 0 mm 1 mps 753 mmHg 88%
    20:00 +9°C° 0 mm 1 mps 753 mmHg 89%
    21:00 +9°C° 0 mm 1 mps 752 mmHg 90%
    22:00 +7°C° 0 mm 2 mps 752 mmHg 92%
    23:00 +7°C° 0 mm 2 mps 752 mmHg 93%

    Day after tomorrow, 18 January, Friday

    Time Temperature Precipitation Wind Pressure Humidity
    00:00 +7°C° 0 mm 2 mps 752 mmHg 94%
    01:00 +7°C° 0 mm 2 mps 752 mmHg 95%
    02:00 +7°C° 0.1 mm 2 mps 752 mmHg 94%
    03:00 +7°C° 0.1 mm 2 mps 752 mmHg 94%
    04:00 +7°C° 0.1 mm 2 mps 752 mmHg 94%
    05:00 +7°C° 0.1 mm 2 mps 752 mmHg 94%
    06:00 +7°C° 0.1 mm 2 mps 752 mmHg 94%
    07:00 +7°C° 0.1 mm 2 mps 752 mmHg 94%
    08:00 +7°C° 0 mm 2 mps 753 mmHg 92%
    09:00 +8°C° 0 mm 2 mps 753 mmHg 90%
    10:00 +9°C° 0 mm 2 mps 754 mmHg 88%
    11:00 +10°C° 0.1 mm 2 mps 754 mmHg 82%
    12:00 +12°C° 0.1 mm 2 mps 754 mmHg 77%
    13:00 +13°C° 0.1 mm 2 mps 754 mmHg 72%
    14:00 +13°C° 0.4 mm 1 mps 754 mmHg 73%
    15:00 +13°C° 0.4 mm 1 mps 754 mmHg 74%
    16:00 +13°C° 0.4 mm 1 mps 754 mmHg 75%
    17:00 +12°C° 0.5 mm 1 mps 754 mmHg 79%
    18:00 +11°C° 0.5 mm 1 mps 754 mmHg 83%
    19:00 +9°C° 0.5 mm 2 mps 754 mmHg 86%
    20:00 +9°C° 0.4 mm 2 mps 754 mmHg 88%
    21:00 +8°C° 0.4 mm 2 mps 754 mmHg 89%
    22:00 +8°C° 0.4 mm 2 mps 755 mmHg 91%
    23:00 +8°C° 0.1 mm 2 mps 755 mmHg 91%

    19 January, Saturday

    Time Temperature Precipitation Wind Pressure Humidity
    00:00 +8°C° 0.1 mm 1 mps 754 mmHg 92%
    01:00 +8°C° 0.1 mm 1 mps 754 mmHg 92%
    02:00 +8°C° 0 mm 1 mps 754 mmHg 93%
    03:00 +8°C° 0 mm 1 mps 754 mmHg 93%
    04:00 +8°C° 0 mm 1 mps 754 mmHg 93%
    05:00 +8°C° 0.1 mm 1 mps 754 mmHg 93%
    06:00 +7°C° 0.1 mm 2 mps 754 mmHg 94%
    07:00 +6°C° 0.1 mm 2 mps 754 mmHg 94%
    08:00 +8°C° 0.1 mm 1 mps 754 mmHg 91%
    09:00 +9°C° 0.1 mm 1 mps 754 mmHg 87%
    10:00 +10°C° 0.1 mm 1 mps 754 mmHg 84%
    11:00 +9°C° 0.1 mm 2 mps 754 mmHg 77%
    12:00 +10°C° 0.1 mm 2 mps 753 mmHg 71%
    13:00 +12°C° 0.1 mm 2 mps 753 mmHg 64%
    14:00 +10°C° 0.1 mm 2 mps 753 mmHg 67%
    15:00 +10°C° 0.1 mm 2 mps 753 mmHg 70%
    16:00 +11°C° 0.1 mm 1 mps 752 mmHg 74%
    17:00 +10°C° 0 mm 1 mps 753 mmHg 78%
    18:00 +9°C° 0 mm 1 mps 753 mmHg 81%
    19:00 +7°C° 0 mm 0 mps 753 mmHg 85%
    20:00 +7°C° 0.2 mm 0 mps 753 mmHg 87%
    21:00 +8°C° 0.2 mm 1 mps 753 mmHg 88%
    22:00 +8°C° 0.2 mm 1 mps 753 mmHg 89%
    23:00 +7°C° 0.2 mm 1 mps 753 mmHg 90%

    20 January, Sunday

    Time Temperature Precipitation Wind Pressure Humidity
    00:00 +7°C° 0.2 mm 1 mps 753 mmHg 91%
    01:00 +7°C° 0.2 mm 1 mps 753 mmHg 92%
    02:00 +6°C° 0 mm 1 mps 753 mmHg 93%
    03:00 +6°C° 0 mm 1 mps 753 mmHg 93%
    04:00 +5°C° 0 mm 1 mps 753 mmHg 93%
    05:00 +5°C° 0 mm 1 mps 753 mmHg 93%
    06:00 +5°C° 0 mm 1 mps 753 mmHg 92%
    07:00 +5°C° 0 mm 1 mps 753 mmHg 92%
    08:00 +6°C° 0 mm 1 mps 753 mmHg 88%
    09:00 +7°C° 0 mm 1 mps 753 mmHg 85%
    10:00 +8°C° 0 mm 1 mps 753 mmHg 82%
    11:00 +9°C° 0 mm 1 mps 753 mmHg 76%
    12:00 +10°C° 0 mm 1 mps 753 mmHg 71%
    13:00 +10°C° 0 mm 2 mps 753 mmHg 65%
    14:00 +11°C° 0 mm 1 mps 753 mmHg 67%
    15:00 +11°C° 0 mm 1 mps 752 mmHg 68%
    16:00 +11°C° 0 mm 1 mps 752 mmHg 69%
    17:00 +10°C° 0.1 mm 1 mps 752 mmHg 73%
    18:00 +10°C° 0.1 mm 1 mps 752 mmHg 77%
    19:00 +8°C° 0.1 mm 2 mps 752 mmHg 80%
    20:00 +8°C° 0.1 mm 2 mps 753 mmHg 82%
    21:00 +7°C° 0.1 mm 2 mps 753 mmHg 84%
    22:00 +7°C° 0.1 mm 2 mps 753 mmHg 86%
    23:00 +7°C° 0.1 mm 2 mps 753 mmHg 87%

    21 January, Monday

    Time Temperature Precipitation Wind Pressure Humidity
    00:00 +7°C° 0.1 mm 2 mps 752 mmHg 88%
    01:00 +7°C° 0.1 mm 2 mps 752 mmHg 89%
    02:00 +7°C° 0.6 mm 3 mps 752 mmHg 90%
    03:00 +7°C° 0.6 mm 3 mps 752 mmHg 90%
    04:00 +7°C° 0.6 mm 3 mps 751 mmHg 90%
    05:00 +7°C° 2 mm 3 mps 751 mmHg 90%
    06:00 +7°C° 2 mm 3 mps 751 mmHg 90%
    07:00 +6°C° 2 mm 4 mps 751 mmHg 90%
    08:00 +7°C° 1.6 mm 3 mps 751 mmHg 89%
    09:00 +8°C° 1.6 mm 3 mps 751 mmHg 88%
    10:00 +8°C° 1.6 mm 3 mps 751 mmHg 87%
    11:00 +8°C° 0.9 mm 3 mps 751 mmHg 85%
    12:00 +9°C° 0.9 mm 3 mps 751 mmHg 82%
    13:00 +8°C° 0.9 mm 4 mps 751 mmHg 80%
    14:00 +10°C° 0.1 mm 4 mps 751 mmHg 78%
    15:00 +10°C° 0.1 mm 4 mps 751 mmHg 76%
    16:00 +11°C° 0.1 mm 4 mps 750 mmHg 74%
    17:00 +10°C° 0.2 mm 3 mps 750 mmHg 77%
    18:00 +9°C° 0.2 mm 3 mps 750 mmHg 80%
    19:00 +8°C° 0.2 mm 3 mps 750 mmHg 82%
    20:00 +8°C° 0.1 mm 2 mps 750 mmHg 83%
    21:00 +8°C° 0.1 mm 2 mps 750 mmHg 84%
    22:00 +8°C° 0.1 mm 2 mps 751 mmHg 86%
    23:00 +8°C° 0.9 mm 2 mps 750 mmHg 87%
    Show more